Overview Statistics Trail Chart Weather Telemetry Raw packets
 

This is the latest recevied weather packets stored in our database for station/object 9W2CHF-2. If no packets are shown the sender has not sent any weather packets the latest 10 day(s).

<< 21 22 23 24 25 26 27 >>
Time Temp. Humidity Pressure Rain* Wind** Luminosity Snow
1788113748 33.33° C 63% 1012.3 hPa - - - -
1788112848 33.33° C 63% 1012.2 hPa - - - -
1788111948 33.33° C 62% 1012.3 hPa - - - -
1788111060 33.33° C 63% 1012.6 hPa - - - -
1788110160 33.33° C 63% 1012.5 hPa - - - -
1788109260 33.33° C 63% 1012.8 hPa - - - -
1788108360 33.89° C 60% 1012.7 hPa - - - -
1788107460 33.89° C 60% 1012.7 hPa - - - -
1788106560 33.89° C 60% 1012.7 hPa - - - -
1788105659 33.89° C 59% 1012.5 hPa - - - -
1788104759 33.89° C 60% 1012.5 hPa - - - -
1788103859 33.89° C 59% 1012.6 hPa - - - -
1788102958 33.89° C 59% 1012.7 hPa - - - -
1788102058 33.89° C 59% 1012.6 hPa - - - -
1788101157 33.89° C 59% 1012.6 hPa - - - -
1788100257 33.89° C 60% 1012.7 hPa - - - -
1788099357 34.44° C 59% 1012.8 hPa - - - -
1788098457 34.44° C 58% 1012.6 hPa - - - -
1788097557 34.44° C 57% 1012.5 hPa - - - -
1788096656 34.44° C 59% 1012.4 hPa - - - -
1788095756 34.44° C 58% 1012.2 hPa - - - -
1788094856 34.44° C 58% 1011.9 hPa - - - -
1788093970 34.44° C 60% 1011.7 hPa - - - -
1788093054 34.44° C 58% 1011.6 hPa - - - -
1788092154 34.44° C 58% 1011.2 hPa - - - -

* Rain since midnight (hover to see other rain measurements)
** Current wind speed in m/s (hover to see current wind gust speed)